Location: Cedar Brake
(32.2526°N, 97.8459°W)
Time: 16:07:46
(UTC+00:00)

Cosmos 1703 - Pass Details

Date: 22 April 2026
Orbit: 403 x 411 km, 82.5° (Epoch: 9 May)

Event Time Altitude Azimuth Distance (km) Brightness Sun altitude
Rises 11:22:26 0° 197° (SSW) 2,340 6.2 -7.2°
Reaches altitude 10° 11:24:30 10° 204° (SSW) 1,482 5.1 -6.8°
Maximum altitude 11:27:36 45° 278° (W) 578 3.1 -6.2°
Drops below altitude 10° 11:30:44 10° 353° (N) 1,490 5.7 -5.6°
Sets 11:32:49 0° 359° (N) 2,356 6.8 -5.2°
